Year,Month,Day,Hour,Minute,Value (Times are PST for temperature in C)
2008,05,28,00,00,13.00
2008,05,28,00,01,13.00
2008,05,28,00,02,13.00
2008,05,28,00,03,13.00
2008,05,28,00,04,12.90
2008,05,28,00,05,12.90
2008,05,28,00,06,12.90
2008,05,28,00,07,12.90
2008,05,28,00,08,12.90
2008,05,28,00,09,12.90
2008,05,28,00,10,12.80
2008,05,28,00,11,12.80
2008,05,28,00,12,12.80
2008,05,28,00,13,12.80
2008,05,28,00,14,12.80
2008,05,28,00,15,12.80
2008,05,28,00,16,12.80
2008,05,28,00,17,12.80
2008,05,28,00,18,12.80
2008,05,28,00,19,12.80
2008,05,28,00,20,12.70
2008,05,28,00,21,12.70
2008,05,28,00,22,12.70
2008,05,28,00,23,12.70
2008,05,28,00,24,12.70
2008,05,28,00,25,12.70
2008,05,28,00,26,12.70
2008,05,28,00,27,12.60
2008,05,28,00,28,12.60
2008,05,28,00,29,12.60
2008,05,28,00,30,12.60
2008,05,28,00,31,12.60
2008,05,28,00,32,12.60
2008,05,28,00,33,12.60
2008,05,28,00,34,12.50
2008,05,28,00,35,12.50
2008,05,28,00,36,12.50
2008,05,28,00,37,12.50
2008,05,28,00,38,12.50
2008,05,28,00,39,12.50
2008,05,28,00,40,12.50
2008,05,28,00,41,12.50
2008,05,28,00,42,12.40
2008,05,28,00,43,12.40
2008,05,28,00,44,12.40
2008,05,28,00,45,12.40
2008,05,28,00,46,12.40
2008,05,28,00,47,12.40
2008,05,28,00,48,12.40
2008,05,28,00,49,12.40
2008,05,28,00,50,12.40
2008,05,28,00,51,12.40
2008,05,28,00,52,12.40
2008,05,28,00,53,12.40
2008,05,28,00,54,12.40
2008,05,28,00,55,12.30
2008,05,28,00,56,12.30
2008,05,28,00,57,12.30
2008,05,28,00,58,12.20
2008,05,28,00,59,12.20
2008,05,28,01,00,12.10
2008,05,28,01,01,12.10
2008,05,28,01,02,12.10
2008,05,28,01,03,12.10
2008,05,28,01,04,12.10
2008,05,28,01,05,12.00
2008,05,28,01,06,12.00
2008,05,28,01,07,12.00
2008,05,28,01,08,12.00
2008,05,28,01,09,12.00
2008,05,28,01,10,12.00
2008,05,28,01,11,12.00
2008,05,28,01,12,12.00
2008,05,28,01,13,12.00
2008,05,28,01,14,12.10
2008,05,28,01,15,12.10
2008,05,28,01,16,12.10
2008,05,28,01,17,12.10
2008,05,28,01,18,12.10
2008,05,28,01,19,12.10
2008,05,28,01,20,12.10
2008,05,28,01,21,12.00
2008,05,28,01,22,12.00
2008,05,28,01,23,12.00
2008,05,28,01,24,12.00
2008,05,28,01,25,11.90
2008,05,28,01,26,11.90
2008,05,28,01,27,11.90
2008,05,28,01,28,11.90
2008,05,28,01,29,11.90
2008,05,28,01,30,11.90
2008,05,28,01,31,11.90
2008,05,28,01,32,11.90
2008,05,28,01,33,11.90
2008,05,28,01,34,11.90
2008,05,28,01,35,11.90
2008,05,28,01,36,11.90
2008,05,28,01,37,11.90
2008,05,28,01,38,11.90
2008,05,28,01,39,11.80
2008,05,28,01,40,11.80
2008,05,28,01,41,11.80
2008,05,28,01,42,11.80
2008,05,28,01,43,11.80
2008,05,28,01,44,11.80
2008,05,28,01,45,11.70
2008,05,28,01,46,11.70
2008,05,28,01,47,11.70
2008,05,28,01,48,11.70
2008,05,28,01,49,11.70
2008,05,28,01,50,11.70
2008,05,28,01,51,11.70
2008,05,28,01,52,11.70
2008,05,28,01,53,11.70
2008,05,28,01,54,11.70
2008,05,28,01,55,11.70
2008,05,28,01,56,11.70
2008,05,28,01,57,11.70
2008,05,28,01,58,11.70
2008,05,28,01,59,11.70
2008,05,28,02,00,11.70
2008,05,28,02,01,11.70
2008,05,28,02,02,11.70
2008,05,28,02,03,11.70
2008,05,28,02,04,11.70
2008,05,28,02,05,11.70
2008,05,28,02,06,11.70
2008,05,28,02,07,11.70
2008,05,28,02,08,11.70
2008,05,28,02,09,11.70
2008,05,28,02,10,11.70
2008,05,28,02,11,11.70
2008,05,28,02,12,11.70
2008,05,28,02,13,11.60
2008,05,28,02,14,11.60
2008,05,28,02,15,11.60
2008,05,28,02,16,11.50
2008,05,28,02,17,11.50
2008,05,28,02,18,11.50
2008,05,28,02,19,11.50
2008,05,28,02,20,11.50
2008,05,28,02,21,11.50
2008,05,28,02,22,11.40
2008,05,28,02,23,11.40
2008,05,28,02,24,11.40
2008,05,28,02,25,11.40
2008,05,28,02,26,11.40
2008,05,28,02,27,11.40
2008,05,28,02,28,11.40
2008,05,28,02,29,11.40
2008,05,28,02,30,11.40
2008,05,28,02,31,11.40
2008,05,28,02,32,11.40
2008,05,28,02,33,11.40
2008,05,28,02,34,11.40
2008,05,28,02,35,11.50
2008,05,28,02,36,11.50
2008,05,28,02,37,11.50
2008,05,28,02,38,11.40
2008,05,28,02,39,11.40
2008,05,28,02,40,11.40
2008,05,28,02,41,11.40
2008,05,28,02,42,11.40
2008,05,28,02,43,11.40
2008,05,28,02,44,11.40
2008,05,28,02,45,11.40
2008,05,28,02,46,11.40
2008,05,28,02,47,11.40
2008,05,28,02,48,11.40
2008,05,28,02,49,11.40
2008,05,28,02,50,11.40
2008,05,28,02,51,11.40
2008,05,28,02,52,11.40
2008,05,28,02,53,11.40
2008,05,28,02,54,11.40
2008,05,28,02,55,11.40
2008,05,28,02,56,11.40
2008,05,28,02,57,11.40
2008,05,28,02,58,11.40
2008,05,28,02,59,11.30
2008,05,28,03,00,11.30
2008,05,28,03,01,11.30
2008,05,28,03,02,11.20
2008,05,28,03,03,11.20
2008,05,28,03,04,11.20
2008,05,28,03,05,11.20
2008,05,28,03,06,11.10
2008,05,28,03,07,11.10
2008,05,28,03,08,11.10
2008,05,28,03,09,11.00
2008,05,28,03,10,11.00
2008,05,28,03,11,11.00
2008,05,28,03,12,10.90
2008,05,28,03,13,10.90
2008,05,28,03,14,10.90
2008,05,28,03,15,10.90
2008,05,28,03,16,10.90
2008,05,28,03,17,10.90
2008,05,28,03,18,10.80
2008,05,28,03,19,10.80
2008,05,28,03,20,10.80
2008,05,28,03,21,10.80
2008,05,28,03,22,10.80
2008,05,28,03,23,10.80
2008,05,28,03,24,10.80
2008,05,28,03,25,10.80
2008,05,28,03,26,10.80
2008,05,28,03,27,10.80
2008,05,28,03,28,10.80
2008,05,28,03,29,10.80
2008,05,28,03,30,10.80
2008,05,28,03,31,10.80
2008,05,28,03,32,10.80
2008,05,28,03,33,10.80
2008,05,28,03,34,10.80
2008,05,28,03,35,10.80
2008,05,28,03,36,10.80
2008,05,28,03,37,10.80
2008,05,28,03,38,10.80
2008,05,28,03,39,10.80
2008,05,28,03,40,10.80
2008,05,28,03,41,10.80
2008,05,28,03,42,10.80
2008,05,28,03,43,10.80
2008,05,28,03,44,10.80
2008,05,28,03,45,10.80
2008,05,28,03,46,10.80
2008,05,28,03,47,10.80
2008,05,28,03,48,10.80
2008,05,28,03,49,10.80
2008,05,28,03,50,10.80
2008,05,28,03,51,10.70
2008,05,28,03,52,10.70
2008,05,28,03,53,10.70
2008,05,28,03,54,10.70
2008,05,28,03,55,10.70
2008,05,28,03,56,10.70
2008,05,28,03,57,10.70
2008,05,28,03,58,10.70
2008,05,28,03,59,10.70
2008,05,28,04,00,10.70
2008,05,28,04,01,10.70
2008,05,28,04,02,10.60
2008,05,28,04,03,10.60
2008,05,28,04,04,10.60
2008,05,28,04,05,10.60
2008,05,28,04,06,10.60
2008,05,28,04,07,10.60
2008,05,28,04,08,10.60
2008,05,28,04,09,10.50
2008,05,28,04,10,10.50
2008,05,28,04,11,10.50
2008,05,28,04,12,10.50
2008,05,28,04,13,10.50
2008,05,28,04,14,10.50
2008,05,28,04,15,10.50
2008,05,28,04,16,10.40
2008,05,28,04,17,10.40
2008,05,28,04,18,10.40
2008,05,28,04,19,10.40
2008,05,28,04,20,10.40
2008,05,28,04,21,10.40
2008,05,28,04,22,10.40
2008,05,28,04,23,10.40
2008,05,28,04,24,10.40
2008,05,28,04,25,10.40
2008,05,28,04,26,10.30
2008,05,28,04,27,10.30
2008,05,28,04,28,10.30
2008,05,28,04,29,10.30
2008,05,28,04,30,10.30
2008,05,28,04,31,10.30
2008,05,28,04,32,10.30
2008,05,28,04,33,10.30
2008,05,28,04,34,10.30
2008,05,28,04,35,10.40
2008,05,28,04,36,10.30
2008,05,28,04,37,10.30
2008,05,28,04,38,10.30
2008,05,28,04,39,10.30
2008,05,28,04,40,10.30
2008,05,28,04,41,10.30
2008,05,28,04,42,10.30
2008,05,28,04,43,10.20
2008,05,28,04,44,10.20
2008,05,28,04,45,10.20
2008,05,28,04,46,10.20
2008,05,28,04,47,10.20
2008,05,28,04,48,10.20
2008,05,28,04,49,10.20
2008,05,28,04,50,10.10
2008,05,28,04,51,10.10
2008,05,28,04,52,10.10
2008,05,28,04,53,10.10
2008,05,28,04,54,10.10
2008,05,28,04,55,10.10
2008,05,28,04,56,10.10
2008,05,28,04,57,10.10
2008,05,28,04,58,10.10
2008,05,28,04,59,10.10
2008,05,28,05,00,10.10
2008,05,28,05,01,10.10
2008,05,28,05,02,10.10
2008,05,28,05,03,10.10
2008,05,28,05,04,10.10
2008,05,28,05,05,10.10
2008,05,28,05,06,10.10
2008,05,28,05,07,10.10
2008,05,28,05,08,10.00
2008,05,28,05,09,10.00
2008,05,28,05,10,10.00
2008,05,28,05,11,10.00
2008,05,28,05,12,10.00
2008,05,28,05,13,10.00
2008,05,28,05,14,10.00
2008,05,28,05,15,10.00
2008,05,28,05,16,10.00
2008,05,28,05,17,10.00
2008,05,28,05,18,10.00
2008,05,28,05,19,10.00
2008,05,28,05,20,10.00
2008,05,28,05,21,10.00
2008,05,28,05,22,10.00
2008,05,28,05,23,10.00
2008,05,28,05,24,10.00
2008,05,28,05,25,10.00
2008,05,28,05,26,10.00
2008,05,28,05,27,9.90
2008,05,28,05,28,9.90
2008,05,28,05,29,9.90
2008,05,28,05,30,9.90
2008,05,28,05,31,9.90
2008,05,28,05,32,9.90
2008,05,28,05,33,9.90
2008,05,28,05,34,9.90
2008,05,28,05,35,9.90
2008,05,28,05,36,9.90
2008,05,28,05,37,9.90
2008,05,28,05,38,9.90
2008,05,28,05,39,9.90
2008,05,28,05,40,9.90
2008,05,28,05,41,9.90
2008,05,28,05,42,9.90
2008,05,28,05,43,9.90
2008,05,28,05,44,9.90
2008,05,28,05,45,9.90
2008,05,28,05,46,10.00
2008,05,28,05,47,10.00
2008,05,28,05,48,10.00
2008,05,28,05,49,10.00
2008,05,28,05,50,10.10
2008,05,28,05,51,10.10
2008,05,28,05,52,10.20
2008,05,28,05,53,10.20
2008,05,28,05,54,10.20
2008,05,28,05,55,10.20
2008,05,28,05,56,10.20
2008,05,28,05,57,10.20
2008,05,28,05,58,10.20
2008,05,28,05,59,10.20
2008,05,28,06,00,10.20
2008,05,28,06,01,10.20
2008,05,28,06,02,10.20
2008,05,28,06,03,10.20
2008,05,28,06,04,10.20
2008,05,28,06,05,10.30
2008,05,28,06,06,10.30
2008,05,28,06,07,10.30
2008,05,28,06,08,10.30
2008,05,28,06,09,10.30
2008,05,28,06,10,10.30
2008,05,28,06,11,10.30
2008,05,28,06,12,10.30
2008,05,28,06,13,10.30
2008,05,28,06,14,10.30
2008,05,28,06,15,10.30
2008,05,28,06,16,10.40
2008,05,28,06,17,10.40
2008,05,28,06,18,10.50
2008,05,28,06,19,10.50
2008,05,28,06,20,10.60
2008,05,28,06,21,10.60
2008,05,28,06,22,10.60
2008,05,28,06,23,10.70
2008,05,28,06,24,10.70
2008,05,28,06,25,10.70
2008,05,28,06,26,10.80
2008,05,28,06,27,10.80
2008,05,28,06,28,10.80
2008,05,28,06,29,10.90
2008,05,28,06,30,10.90
2008,05,28,06,31,11.00
2008,05,28,06,32,11.00
2008,05,28,06,33,11.00
2008,05,28,06,34,11.10
2008,05,28,06,35,11.10
2008,05,28,06,36,11.10
2008,05,28,06,37,11.10
2008,05,28,06,38,11.10
2008,05,28,06,39,11.10
2008,05,28,06,40,11.10
2008,05,28,06,41,11.10
2008,05,28,06,42,11.10
2008,05,28,06,43,11.10
2008,05,28,06,44,11.20
2008,05,28,06,45,11.20
2008,05,28,06,46,11.30
2008,05,28,06,47,11.30
2008,05,28,06,48,11.30
2008,05,28,06,49,11.40
2008,05,28,06,50,11.40
2008,05,28,06,51,11.40
2008,05,28,06,52,11.50
2008,05,28,06,53,11.50
2008,05,28,06,54,11.60
2008,05,28,06,55,11.60
2008,05,28,06,56,11.70
2008,05,28,06,57,11.70
2008,05,28,06,58,11.80
2008,05,28,06,59,11.80
2008,05,28,07,00,11.90
2008,05,28,07,01,11.90
2008,05,28,07,02,12.00
2008,05,28,07,03,12.10
2008,05,28,07,04,12.10
2008,05,28,07,05,12.20
2008,05,28,07,06,12.30
2008,05,28,07,07,12.30
2008,05,28,07,08,12.40
2008,05,28,07,09,12.50
2008,05,28,07,10,12.60
2008,05,28,07,11,12.60
2008,05,28,07,12,12.60
2008,05,28,07,13,12.70
2008,05,28,07,14,12.70
2008,05,28,07,15,12.80
2008,05,28,07,16,12.80
2008,05,28,07,17,12.90
2008,05,28,07,18,13.00
2008,05,28,07,19,13.10
2008,05,28,07,20,13.20
2008,05,28,07,21,13.20
2008,05,28,07,22,13.30
2008,05,28,07,23,13.30
2008,05,28,07,24,13.40
2008,05,28,07,25,13.50
2008,05,28,07,26,13.50
2008,05,28,07,27,13.60
2008,05,28,07,28,13.70
2008,05,28,07,29,13.80
2008,05,28,07,30,13.80
2008,05,28,07,31,13.90
2008,05,28,07,32,14.00
2008,05,28,07,33,14.10
2008,05,28,07,34,14.10
2008,05,28,07,35,14.20
2008,05,28,07,36,14.20
2008,05,28,07,37,14.20
2008,05,28,07,38,14.20
2008,05,28,07,39,14.30
2008,05,28,07,40,14.30
2008,05,28,07,41,14.30
2008,05,28,07,42,14.40
2008,05,28,07,43,14.40
2008,05,28,07,44,14.40
2008,05,28,07,45,14.50
2008,05,28,07,46,14.60
2008,05,28,07,47,14.60
2008,05,28,07,48,14.60
2008,05,28,07,49,14.60
2008,05,28,07,50,14.70
2008,05,28,07,51,14.70
2008,05,28,07,52,14.80
2008,05,28,07,53,14.80
2008,05,28,07,54,14.80
2008,05,28,07,55,14.90
2008,05,28,07,56,15.00
2008,05,28,07,57,15.00
2008,05,28,07,58,15.00
2008,05,28,07,59,15.00
2008,05,28,08,00,15.00
2008,05,28,08,01,15.10
2008,05,28,08,02,15.10
2008,05,28,08,03,15.20
2008,05,28,08,04,15.30
2008,05,28,08,05,15.30
2008,05,28,08,06,15.30
2008,05,28,08,07,15.40
2008,05,28,08,08,15.50
2008,05,28,08,09,15.50
2008,05,28,08,10,15.60
2008,05,28,08,11,15.70
2008,05,28,08,12,15.70
2008,05,28,08,13,15.80
2008,05,28,08,14,15.80
2008,05,28,08,15,15.80
2008,05,28,08,16,15.80
2008,05,28,08,17,15.80
2008,05,28,08,18,15.80
2008,05,28,08,19,15.80
2008,05,28,08,20,15.80
2008,05,28,08,21,15.80
2008,05,28,08,22,15.80
2008,05,28,08,23,15.80
2008,05,28,08,24,15.80
2008,05,28,08,25,15.80
2008,05,28,08,26,15.90
2008,05,28,08,27,15.90
2008,05,28,08,28,16.00
2008,05,28,08,29,16.00
2008,05,28,08,30,16.10
2008,05,28,08,31,16.10
2008,05,28,08,32,16.20
2008,05,28,08,33,16.20
2008,05,28,08,34,16.20
2008,05,28,08,35,16.20
2008,05,28,08,36,16.20
2008,05,28,08,37,16.20
2008,05,28,08,38,16.20
2008,05,28,08,39,16.30
2008,05,28,08,40,16.30
2008,05,28,08,41,16.40
2008,05,28,08,42,16.40
2008,05,28,08,43,16.50
2008,05,28,08,44,16.50
2008,05,28,08,45,16.50
2008,05,28,08,46,16.50
2008,05,28,08,47,16.60
2008,05,28,08,48,16.70
2008,05,28,08,49,16.70
2008,05,28,08,50,16.80
2008,05,28,08,51,16.80
2008,05,28,08,52,16.80
2008,05,28,08,53,16.80
2008,05,28,08,54,16.70
2008,05,28,08,55,16.70
2008,05,28,08,56,16.60
2008,05,28,08,57,16.50
2008,05,28,08,58,16.40
2008,05,28,08,59,16.30
2008,05,28,09,00,16.10
2008,05,28,09,01,16.00
2008,05,28,09,02,16.00
2008,05,28,09,03,15.90
2008,05,28,09,04,15.80
2008,05,28,09,05,15.80
2008,05,28,09,06,15.80
2008,05,28,09,07,15.80
2008,05,28,09,08,15.80
2008,05,28,09,09,15.80
2008,05,28,09,10,15.80
2008,05,28,09,11,15.80
2008,05,28,09,12,15.80
2008,05,28,09,13,15.90
2008,05,28,09,14,15.90
2008,05,28,09,15,15.90
2008,05,28,09,16,16.00
2008,05,28,09,17,16.10
2008,05,28,09,18,16.10
2008,05,28,09,19,16.20
2008,05,28,09,20,16.20
2008,05,28,09,21,16.20
2008,05,28,09,22,16.20
2008,05,28,09,23,16.10
2008,05,28,09,24,16.10
2008,05,28,09,25,16.10
2008,05,28,09,26,16.10
2008,05,28,09,27,16.00
2008,05,28,09,28,16.00
2008,05,28,09,29,16.10
2008,05,28,09,30,16.10
2008,05,28,09,31,16.20
2008,05,28,09,32,16.20
2008,05,28,09,33,16.30
2008,05,28,09,34,16.40
2008,05,28,09,35,16.50
2008,05,28,09,36,16.60
2008,05,28,09,37,16.70
2008,05,28,09,38,16.70
2008,05,28,09,39,16.80
2008,05,28,09,40,16.90
2008,05,28,09,41,17.00
2008,05,28,09,42,17.00
2008,05,28,09,43,17.10
2008,05,28,09,44,17.10
2008,05,28,09,45,17.10
2008,05,28,09,46,17.20
2008,05,28,09,47,17.20
2008,05,28,09,48,17.30
2008,05,28,09,49,17.40
2008,05,28,09,50,17.50
2008,05,28,09,51,17.60
2008,05,28,09,52,17.80
2008,05,28,09,53,17.80
2008,05,28,09,54,17.80
2008,05,28,09,55,17.80
2008,05,28,09,56,17.80
2008,05,28,09,57,17.80
2008,05,28,09,58,17.80
2008,05,28,09,59,17.70
2008,05,28,10,00,17.70
2008,05,28,10,01,17.70
2008,05,28,10,02,17.70
2008,05,28,10,03,17.60
2008,05,28,10,04,17.60
2008,05,28,10,05,17.50
2008,05,28,10,06,17.50
2008,05,28,10,07,17.50
2008,05,28,10,08,17.50
2008,05,28,10,09,17.40
2008,05,28,10,10,17.30
2008,05,28,10,11,17.30
2008,05,28,10,12,17.30
2008,05,28,10,13,17.30
2008,05,28,10,14,17.40
2008,05,28,10,15,17.50
2008,05,28,10,16,17.50
2008,05,28,10,17,17.50
2008,05,28,10,18,17.50
2008,05,28,10,19,17.60
2008,05,28,10,20,17.60
2008,05,28,10,21,17.60
2008,05,28,10,22,17.60
2008,05,28,10,23,17.60
2008,05,28,10,24,17.60
2008,05,28,10,25,17.60
2008,05,28,10,26,17.60
2008,05,28,10,27,17.60
2008,05,28,10,28,17.70
2008,05,28,10,29,17.80
2008,05,28,10,30,17.80
2008,05,28,10,31,17.90
2008,05,28,10,32,18.00
2008,05,28,10,33,18.00
2008,05,28,10,34,18.00
2008,05,28,10,35,18.10
2008,05,28,10,36,18.10
2008,05,28,10,37,18.20
2008,05,28,10,38,18.30
2008,05,28,10,39,18.40
2008,05,28,10,40,18.60
2008,05,28,10,41,18.70
2008,05,28,10,42,18.70
2008,05,28,10,43,18.70
2008,05,28,10,44,18.70
2008,05,28,10,45,18.80
2008,05,28,10,46,18.70
2008,05,28,10,47,18.70
2008,05,28,10,48,18.60
2008,05,28,10,49,18.60
2008,05,28,10,50,18.60
2008,05,28,10,51,18.50
2008,05,28,10,52,18.50
2008,05,28,10,53,18.50
2008,05,28,10,54,18.60
2008,05,28,10,55,18.60
2008,05,28,10,56,18.40
2008,05,28,10,57,18.30
2008,05,28,10,58,18.20
2008,05,28,10,59,18.20
2008,05,28,11,00,18.30
2008,05,28,11,01,18.40
2008,05,28,11,02,18.50
2008,05,28,11,03,18.50
2008,05,28,11,04,18.60
2008,05,28,11,05,18.50
2008,05,28,11,06,18.50
2008,05,28,11,07,18.40
2008,05,28,11,08,18.30
2008,05,28,11,09,18.20
2008,05,28,11,10,18.10
2008,05,28,11,11,18.10
2008,05,28,11,12,18.10
2008,05,28,11,13,18.10
2008,05,28,11,14,18.10
2008,05,28,11,15,18.10
2008,05,28,11,16,18.10
2008,05,28,11,17,18.10
2008,05,28,11,18,18.10
2008,05,28,11,19,18.10
2008,05,28,11,20,18.00
2008,05,28,11,21,17.90
2008,05,28,11,22,17.90
2008,05,28,11,23,17.90
2008,05,28,11,24,18.10
2008,05,28,11,25,18.10
2008,05,28,11,26,18.20
2008,05,28,11,27,18.20
2008,05,28,11,28,18.20
2008,05,28,11,29,18.20
2008,05,28,11,30,18.30
2008,05,28,11,31,18.30
2008,05,28,11,32,18.20
2008,05,28,11,33,18.00
2008,05,28,11,34,18.00
2008,05,28,11,35,18.00
2008,05,28,11,36,18.10
2008,05,28,11,37,18.20
2008,05,28,11,38,18.20
2008,05,28,11,39,18.20
2008,05,28,11,40,18.30
2008,05,28,11,41,18.30
2008,05,28,11,42,18.40
2008,05,28,11,43,18.40
2008,05,28,11,44,18.40
2008,05,28,11,45,18.30
2008,05,28,11,46,18.30
2008,05,28,11,47,18.20
2008,05,28,11,48,18.20
2008,05,28,11,49,18.10
2008,05,28,11,50,18.10
2008,05,28,11,51,18.10
2008,05,28,11,52,18.10
2008,05,28,11,53,18.10
2008,05,28,11,54,18.10
2008,05,28,11,55,18.10
2008,05,28,11,56,18.10
2008,05,28,11,57,18.00
2008,05,28,11,58,18.00
2008,05,28,11,59,17.90
2008,05,28,12,00,17.80
2008,05,28,12,01,17.70
2008,05,28,12,02,17.60
2008,05,28,12,03,17.60
2008,05,28,12,04,17.50
2008,05,28,12,05,17.50
2008,05,28,12,06,17.40
2008,05,28,12,07,17.30
2008,05,28,12,08,17.30
2008,05,28,12,09,17.40
2008,05,28,12,10,17.40
2008,05,28,12,11,17.40
2008,05,28,12,12,17.50
2008,05,28,12,13,17.50
2008,05,28,12,14,17.60
2008,05,28,12,15,17.60
2008,05,28,12,16,17.60
2008,05,28,12,17,17.60
2008,05,28,12,18,17.60
2008,05,28,12,19,17.70
2008,05,28,12,20,17.60
2008,05,28,12,21,17.70
2008,05,28,12,22,17.70
2008,05,28,12,23,17.70
2008,05,28,12,24,17.80
2008,05,28,12,25,17.90
2008,05,28,12,26,17.90
2008,05,28,12,27,17.90
2008,05,28,12,28,17.80
2008,05,28,12,29,17.70
2008,05,28,12,30,17.70
2008,05,28,12,31,17.70
2008,05,28,12,32,17.70
2008,05,28,12,33,17.80
2008,05,28,12,34,17.70
2008,05,28,12,35,17.80
2008,05,28,12,36,17.80
2008,05,28,12,37,17.80
2008,05,28,12,38,17.90
2008,05,28,12,39,18.00
2008,05,28,12,40,18.00
2008,05,28,12,41,18.10
2008,05,28,12,42,18.20
2008,05,28,12,43,18.30
2008,05,28,12,44,18.20
2008,05,28,12,45,18.20
2008,05,28,12,46,18.20
2008,05,28,12,47,18.30
2008,05,28,12,48,18.40
2008,05,28,12,49,18.40
2008,05,28,12,50,18.40
2008,05,28,12,51,18.30
2008,05,28,12,52,18.20
2008,05,28,12,53,18.00
2008,05,28,12,54,17.90
2008,05,28,12,55,17.80
2008,05,28,12,56,17.80
2008,05,28,12,57,17.80
2008,05,28,12,58,17.70
2008,05,28,12,59,17.70
2008,05,28,13,00,17.70
2008,05,28,13,01,17.70
2008,05,28,13,02,17.80
2008,05,28,13,03,17.90
2008,05,28,13,04,17.90
2008,05,28,13,05,18.00
2008,05,28,13,06,18.10
2008,05,28,13,07,18.20
2008,05,28,13,08,18.30
2008,05,28,13,09,18.30
2008,05,28,13,10,18.30
2008,05,28,13,11,18.40
2008,05,28,13,12,18.40
2008,05,28,13,13,18.40
2008,05,28,13,14,18.60
2008,05,28,13,15,18.70
2008,05,28,13,16,18.80
2008,05,28,13,17,18.70
2008,05,28,13,18,18.70
2008,05,28,13,19,18.60
2008,05,28,13,20,18.50
2008,05,28,13,21,18.40
2008,05,28,13,22,18.40
2008,05,28,13,23,18.30
2008,05,28,13,24,18.30
2008,05,28,13,25,18.40
2008,05,28,13,26,18.60
2008,05,28,13,27,18.70
2008,05,28,13,28,18.70
2008,05,28,13,29,18.80
2008,05,28,13,30,18.70
2008,05,28,13,31,18.80
2008,05,28,13,32,18.80
2008,05,28,13,33,18.80
2008,05,28,13,34,18.70
2008,05,28,13,35,18.70
2008,05,28,13,36,18.70
2008,05,28,13,37,18.70
2008,05,28,13,38,18.50
2008,05,28,13,39,18.40
2008,05,28,13,40,18.30
2008,05,28,13,41,18.20
2008,05,28,13,42,18.20
2008,05,28,13,43,18.20
2008,05,28,13,44,18.30
2008,05,28,13,45,18.50
2008,05,28,13,46,18.60
2008,05,28,13,47,18.80
2008,05,28,13,48,18.90
2008,05,28,13,49,18.90
2008,05,28,13,50,18.80
2008,05,28,13,51,18.60
2008,05,28,13,52,18.60
2008,05,28,13,53,18.50
2008,05,28,13,54,18.40
2008,05,28,13,55,18.30
2008,05,28,13,56,18.40
2008,05,28,13,57,18.40
2008,05,28,13,58,18.50
2008,05,28,13,59,18.60
2008,05,28,14,00,18.60
2008,05,28,14,01,18.70
2008,05,28,14,02,18.70
2008,05,28,14,03,18.80
2008,05,28,14,04,18.80
2008,05,28,14,05,18.80
2008,05,28,14,06,18.80
2008,05,28,14,07,18.90
2008,05,28,14,08,18.90
2008,05,28,14,09,18.90
2008,05,28,14,10,18.90
2008,05,28,14,11,18.90
2008,05,28,14,12,18.90
2008,05,28,14,13,19.00
2008,05,28,14,14,19.10
2008,05,28,14,15,19.20
2008,05,28,14,16,19.30
2008,05,28,14,17,19.40
2008,05,28,14,18,19.50
2008,05,28,14,19,19.60
2008,05,28,14,20,19.60
2008,05,28,14,21,19.70
2008,05,28,14,22,19.70
2008,05,28,14,23,19.60
2008,05,28,14,24,19.70
2008,05,28,14,25,19.70
2008,05,28,14,26,19.70
2008,05,28,14,27,19.50
2008,05,28,14,28,19.40
2008,05,28,14,29,19.50
2008,05,28,14,30,19.50
2008,05,28,14,31,19.50
2008,05,28,14,32,19.50
2008,05,28,14,33,19.50
2008,05,28,14,34,19.50
2008,05,28,14,35,19.40
2008,05,28,14,36,19.40
2008,05,28,14,37,19.40
2008,05,28,14,38,19.40
2008,05,28,14,39,19.50
2008,05,28,14,40,19.60
2008,05,28,14,41,19.60
2008,05,28,14,42,19.50
2008,05,28,14,43,19.30
2008,05,28,14,44,19.30
2008,05,28,14,45,19.40
2008,05,28,14,46,19.40
2008,05,28,14,47,19.40
2008,05,28,14,48,19.40
2008,05,28,14,49,19.50
2008,05,28,14,50,19.60
2008,05,28,14,51,19.60
2008,05,28,14,52,19.70
2008,05,28,14,53,19.80
2008,05,28,14,54,19.70
2008,05,28,14,55,19.60
2008,05,28,14,56,19.60
2008,05,28,14,57,19.50
2008,05,28,14,58,19.40
2008,05,28,14,59,19.40
2008,05,28,15,00,19.50
2008,05,28,15,01,19.50
2008,05,28,15,02,19.60
2008,05,28,15,03,19.70
2008,05,28,15,04,19.70
2008,05,28,15,05,19.80
2008,05,28,15,06,19.90
2008,05,28,15,07,19.90
2008,05,28,15,08,19.80
2008,05,28,15,09,19.90
2008,05,28,15,10,20.00
2008,05,28,15,11,20.00
2008,05,28,15,12,20.00
2008,05,28,15,13,20.00
2008,05,28,15,14,19.90
2008,05,28,15,15,19.80
2008,05,28,15,16,19.80
2008,05,28,15,17,19.70
2008,05,28,15,18,19.70
2008,05,28,15,19,19.80
2008,05,28,15,20,19.90
2008,05,28,15,21,20.00
2008,05,28,15,22,20.10
2008,05,28,15,23,20.10
2008,05,28,15,24,20.10
2008,05,28,15,25,20.20
2008,05,28,15,26,20.20
2008,05,28,15,27,20.20
2008,05,28,15,28,20.20
2008,05,28,15,29,20.20
2008,05,28,15,30,20.30
2008,05,28,15,31,20.40
2008,05,28,15,32,20.40
2008,05,28,15,33,20.50
2008,05,28,15,34,20.50
2008,05,28,15,35,20.40
2008,05,28,15,36,20.30
2008,05,28,15,37,20.20
2008,05,28,15,38,20.20
2008,05,28,15,39,20.20
2008,05,28,15,40,20.20
2008,05,28,15,41,20.30
2008,05,28,15,42,20.30
2008,05,28,15,43,20.20
2008,05,28,15,44,20.10
2008,05,28,15,45,20.00
2008,05,28,15,46,19.90
2008,05,28,15,47,19.80
2008,05,28,15,48,19.80
2008,05,28,15,49,19.80
2008,05,28,15,50,19.90
2008,05,28,15,51,20.00
2008,05,28,15,52,20.10
2008,05,28,15,53,20.10
2008,05,28,15,54,20.00
2008,05,28,15,55,20.00
2008,05,28,15,56,20.00
2008,05,28,15,57,20.00
2008,05,28,15,58,20.00
2008,05,28,15,59,20.00
2008,05,28,16,00,20.00
2008,05,28,16,01,20.00
2008,05,28,16,02,20.00
2008,05,28,16,03,19.90
2008,05,28,16,04,19.90
2008,05,28,16,05,19.90
2008,05,28,16,06,19.80
2008,05,28,16,07,19.70
2008,05,28,16,08,19.70
2008,05,28,16,09,19.60
2008,05,28,16,10,19.60
2008,05,28,16,11,19.50
2008,05,28,16,12,19.40
2008,05,28,16,13,19.40
2008,05,28,16,14,19.30
2008,05,28,16,15,19.50
2008,05,28,16,16,19.60
2008,05,28,16,17,19.60
2008,05,28,16,18,19.40
2008,05,28,16,19,19.40
2008,05,28,16,20,19.30
2008,05,28,16,21,19.30
2008,05,28,16,22,19.30
2008,05,28,16,23,19.30
2008,05,28,16,24,19.40
2008,05,28,16,25,19.50
2008,05,28,16,26,19.50
2008,05,28,16,27,19.60
2008,05,28,16,28,19.50
2008,05,28,16,29,19.30
2008,05,28,16,30,19.20
2008,05,28,16,31,19.00
2008,05,28,16,32,18.90
2008,05,28,16,33,18.90
2008,05,28,16,34,18.80
2008,05,28,16,35,18.80
2008,05,28,16,36,18.70
2008,05,28,16,37,18.70
2008,05,28,16,38,18.70
2008,05,28,16,39,18.60
2008,05,28,16,40,18.60
2008,05,28,16,41,18.60
2008,05,28,16,42,18.60
2008,05,28,16,43,18.60
2008,05,28,16,44,18.80
2008,05,28,16,45,18.90
2008,05,28,16,46,19.00
2008,05,28,16,47,19.00
2008,05,28,16,48,19.00
2008,05,28,16,49,19.10
2008,05,28,16,50,19.20
2008,05,28,16,51,19.20
2008,05,28,16,52,19.20
2008,05,28,16,53,19.20
2008,05,28,16,54,19.10
2008,05,28,16,55,19.00
2008,05,28,16,56,18.90
2008,05,28,16,57,18.90
2008,05,28,16,58,18.90
2008,05,28,16,59,18.80
2008,05,28,17,00,18.80
2008,05,28,17,01,18.70
2008,05,28,17,02,18.60
2008,05,28,17,03,18.60
2008,05,28,17,04,18.60
2008,05,28,17,05,18.60
2008,05,28,17,06,18.50
2008,05,28,17,07,18.60
2008,05,28,17,08,18.50
2008,05,28,17,09,18.40
2008,05,28,17,10,18.30
2008,05,28,17,11,18.40
2008,05,28,17,12,18.40
2008,05,28,17,13,18.50
2008,05,28,17,14,18.50
2008,05,28,17,15,18.50
2008,05,28,17,16,18.50
2008,05,28,17,17,18.50
2008,05,28,17,18,18.50
2008,05,28,17,19,18.50
2008,05,28,17,20,18.60